This is the latest recevied weather packets stored in our database for station/object KE8WMS. If no packets are shown the sender has not sent any weather packets the latest 10 day(s).
| Time | Temp. | Humidity | Pressure | Rain* | Wind** | Luminosity | Snow |
|---|---|---|---|---|---|---|---|
| 1787862158 | 25.56° C | 67% | 1010.3 hPa | 0 mm | - | 467 W/m² | - |
| 1787861853 | 26.11° C | 66% | 1010.2 hPa | 0 mm | - | 479 W/m² | - |
| 1787861551 | 25.56° C | 70% | 1010.2 hPa | 0 mm | - | 491 W/m² | - |
| 1787861247 | 25.56° C | 66% | 1010.3 hPa | 0 mm | - | 503 W/m² | - |
| 1787860946 | 25.56° C | 67% | 1010.4 hPa | 0 mm | - | 514 W/m² | - |
| 1787860641 | 25.56° C | 66% | 1010.4 hPa | 0 mm | - | 527 W/m² | - |
| 1787860336 | 26.67° C | 66% | 1010.3 hPa | 0 mm | - | 536 W/m² | - |
| 1787860031 | 26.11° C | 68% | 1010.3 hPa | 0 mm | - | 545 W/m² | - |
| 1787859726 | 25.56° C | 69% | 1010.4 hPa | 0 mm | - | 557 W/m² | - |
| 1787859426 | 25.56° C | 67% | 1010.4 hPa | 0 mm | - | 567 W/m² | - |
| 1787859121 | 26.67° C | 66% | 1010.3 hPa | 0 mm | - | 578 W/m² | - |
| 1787858818 | 26.67° C | 64% | 1010.4 hPa | 0 mm | - | 587 W/m² | - |
| 1787858513 | 26.11° C | 65% | 1010.5 hPa | 0 mm | - | 596 W/m² | - |
| 1787858212 | 26.67° C | 67% | 1010.5 hPa | 0 mm | - | 606 W/m² | - |
| 1787857908 | 26.11° C | 66% | 1010.3 hPa | 0 mm | - | 615 W/m² | - |
| 1787857604 | 25.56° C | 68% | 1010.3 hPa | 0 mm | - | 620 W/m² | - |
| 1787857304 | 25.56° C | 69% | 1010.4 hPa | 0 mm | - | 630 W/m² | - |
| 1787857003 | 25.56° C | 71% | 1010.3 hPa | 0 mm | - | 630 W/m² | - |
| 1787856702 | 26.11° C | 70% | 1010.5 hPa | 0 mm | - | 640 W/m² | - |
| 1787856397 | 25.56° C | 71% | 1010.6 hPa | 0 mm | - | 645 W/m² | - |
| 1787856092 | 25.56° C | 69% | 1010.6 hPa | 0 mm | - | 651 W/m² | - |
| 1787855787 | 25.56° C | 71% | 1010.6 hPa | 0 mm | - | 656 W/m² | - |
| 1787855482 | 25.56° C | 69% | 1010.4 hPa | 0 mm | - | 662 W/m² | - |
| 1787855178 | 26.11° C | 69% | 1010.2 hPa | 0 mm | - | 670 W/m² | - |
| 1787854873 | 26.11° C | 70% | 1010.2 hPa | 0 mm | - | 670 W/m² | - |
* Rain latest hour (hover to see other rain measurements)
** Current wind speed in m/s (hover to see current wind gust speed)